DELTA 1 R/B, 2436

Orbit data source: Space-Track

DELTA 1 R/B, 2436 is space debris in SSO originally from a launch on Sun, 02 Oct 1966 UTC launched from the Air Force Western Test Range (AFWTR). Debris objects in space refer to the collection of defunct objects orbiting the Earth. Examples of debris include non-operational satellites, rocket bodies, and fragments generated from explosions, collisions, or faulty payload assembly.

Loading next visibility...
Identifier
2436, 1966-087B
Orbit
SSO
Country
Flag of USUS
Related business
Manufacturer
ABL
Mission
Spacecraft
Bus & Motor
ALTAIR, Unknown motor
Mass
33 kg wet, 33 kg dry
Launch date (UTC)
1966-10-02 (59 years ago)
Launch vehicle
Unknown
Launch site
Air Force Western Test Range (AFWTR)
Object type
Payload
Rocket body
Debris
Shape & HBR
Unknown
Radar Cross Section
Medium (>0.1 m² and <1 m²)

Expand to show TLE details & history
Last TLE update: 13 hours ago

TLE from 13 hours ago
0 DELTA 1 R/B
1 02436U 66087B   26072.30968939 -.00000007  00000-0  20575-3 0  9996
2 02436 101.0331  31.4845 0064855 219.7914 139.8397 12.57674294728051
Epoch: 2026-03-13T07:25Z
TLE epoch observation values (Epoch: 2026-03-13T07:25:57.163Z)
Latitude
0.00003°
Longitude
109.04925°
Altitude
1,474.025 km
Speed
7.108 km/s
True Right ascension
02h 05m 56s
True Declination
0° 00' 00"
Sunlit
Object was in daylight at epoch
Visualization orbit readout
Latitude
Unknown
Longitude
Unknown
Altitude
Unknown
Speed
Unknown
Apparent Right ascension
Unknown
Apparent Declination
Unknown
Sunlit
N/A
Visualization observer readout
Local Sidereal Time
01:04:35
Azimuth
Unknown
Elevation
Unknown
Doppler factor
Unknown
Orbital elements
Apogee altitude
1,480.694 km
Perigee altitude
1,379.414 km
Semi-major axis
7,808.191 km
Eccentricity
0.00649
Inclination
101.0331°
RAAN
31.4845°
Arg. of periapsis
219.7914°
True anomaly
140.31604°
Mean anomaly
139.8397°
Eccentric anomaly
140.07817°
Mean motion
3.1457 °/min
Orbital period
114.44 mins
BSTAR
0.00020575
Loading maneuver chart data...
Computing Atmospheric mass density...
Loading historical data...
Loading historical data...
Loading historical data...
Loading historical data...
Loading historical data...
Loading historical data...
Loading historical data...
Other satellites on launch #87 in the year 1966 (1966-10-02 UTC)

Documentation

Showing up to 5 results
|